Location: Newark
(7.0858°N, 171.3717°E)
Time: 09:43:29
(UTC+00:00)

S-56A Canister/Altair - Pass Details

Date: 26 November 2020
Orbit: 633 x 2499 km, 38.9° (Epoch: 27 January)

Event Time Altitude Azimuth Distance (km) Brightness Sun altitude
Rises 06:51:31 0° 241° (WSW) 6,132 14.3 -9.4°
Reaches altitude 10° 06:55:54 10° 246° (WSW) 5,021 13.3 -10.4°
Maximum altitude 07:09:20 52° 318° (NW) 2,330 10.1 -13.6°
Enters shadow 07:18:52 10° 33° (NNE) 3,628 10.5 -15.8°
Drops below altitude 10° 07:18:57 10° 33° (NNE) 3,653 - -15.8°
Sets 07:21:40 0° 38° (NE) 4,399 - -16.4°
